• en Suisse
  • Liste des pays
  • À 7 jours
  • Température de l'eau
  • Carte satellitaire
  • Carte météo
  • Widgets météo
  • user-avatar
    Se connecter

    Météo par heure à Bedford

    Ce jour, 21 Septembre, Vendredi

    Heure Température Précipitation Vent Pression Humidité
    00:00 +18°C° 0.7 mm 12 m/s 743 mmHg 80%
    01:00 +15°C° 0.4 mm 12 m/s 744 mmHg 78%
    02:00 +14°C° 0.4 mm 11 m/s 744 mmHg 76%
    03:00 +12°C° 0.4 mm 11 m/s 744 mmHg 74%
    04:00 +11°C° 0 mm 10 m/s 746 mmHg 73%
    05:00 +9°C° 0 mm 10 m/s 748 mmHg 72%
    06:00 +8°C° 0 mm 9 m/s 749 mmHg 70%
    07:00 +10°C° 0 mm 9 m/s 750 mmHg 65%
    08:00 +10°C° 0 mm 9 m/s 751 mmHg 61%
    09:00 +11°C° 0 mm 10 m/s 752 mmHg 56%
    10:00 +12°C° 0 mm 10 m/s 752 mmHg 52%
    11:00 +13°C° 0 mm 11 m/s 752 mmHg 49%
    12:00 +14°C° 0 mm 11 m/s 752 mmHg 46%
    13:00 +14°C° 0 mm 11 m/s 753 mmHg 47%
    14:00 +14°C° 0 mm 11 m/s 753 mmHg 48%
    15:00 +14°C° 0 mm 11 m/s 754 mmHg 50%
    16:00 +14°C° 0 mm 10 m/s 754 mmHg 53%
    17:00 +13°C° 0 mm 8 m/s 755 mmHg 57%
    18:00 +12°C° 0 mm 7 m/s 755 mmHg 60%
    19:00 +11°C° 0 mm 7 m/s 756 mmHg 63%
    20:00 +11°C° 0 mm 6 m/s 757 mmHg 66%
    21:00 +10°C° 0 mm 6 m/s 758 mmHg 69%
    22:00 +10°C° 0 mm 5 m/s 758 mmHg 72%
    23:00 +9°C° 0 mm 5 m/s 759 mmHg 74%

    Demain, 22 Septembre, Samedi

    Heure Température Précipitation Vent Pression Humidité
    00:00 +9°C° 0 mm 5 m/s 759 mmHg 76%
    01:00 +9°C° 0 mm 5 m/s 760 mmHg 77%
    02:00 +10°C° 0 mm 4 m/s 760 mmHg 77%
    03:00 +10°C° 0 mm 4 m/s 760 mmHg 78%
    04:00 +8°C° 0 mm 4 m/s 761 mmHg 78%
    05:00 +8°C° 0 mm 4 m/s 761 mmHg 79%
    06:00 +9°C° 0 mm 3 m/s 761 mmHg 80%
    07:00 +10°C° 0 mm 4 m/s 761 mmHg 74%
    08:00 +11°C° 0 mm 4 m/s 762 mmHg 69%
    09:00 +12°C° 0 mm 4 m/s 762 mmHg 63%
    10:00 +13°C° 0 mm 4 m/s 762 mmHg 60%
    11:00 +14°C° 0 mm 4 m/s 762 mmHg 57%
    12:00 +14°C° 0 mm 4 m/s 762 mmHg 54%
    13:00 +15°C° 0 mm 4 m/s 762 mmHg 54%
    14:00 +15°C° 0 mm 4 m/s 762 mmHg 54%
    15:00 +16°C° 0 mm 3 m/s 762 mmHg 54%
    16:00 +14°C° 0.2 mm 3 m/s 762 mmHg 61%
    17:00 +14°C° 0.2 mm 2 m/s 761 mmHg 67%
    18:00 +13°C° 0.2 mm 1 m/s 761 mmHg 74%
    19:00 +13°C° 0.6 mm 2 m/s 761 mmHg 78%
    20:00 +13°C° 0.6 mm 2 m/s 761 mmHg 82%
    21:00 +12°C° 0.6 mm 2 m/s 761 mmHg 86%
    22:00 +11°C° 0.6 mm 3 m/s 760 mmHg 87%
    23:00 +11°C° 0.6 mm 3 m/s 759 mmHg 88%

    Après-demain, 23 Septembre, Dimanche

    Heure Température Précipitation Vent Pression Humidité
    00:00 +11°C° 0.6 mm 4 m/s 758 mmHg 89%
    01:00 +11°C° 1 mm 4 m/s 757 mmHg 90%
    02:00 +11°C° 1 mm 4 m/s 757 mmHg 90%
    03:00 +10°C° 1 mm 5 m/s 756 mmHg 91%
    04:00 +10°C° 1.5 mm 5 m/s 755 mmHg 92%
    05:00 +12°C° 1.5 mm 5 m/s 754 mmHg 92%
    06:00 +12°C° 1.5 mm 5 m/s 754 mmHg 93%
    07:00 +12°C° 1.2 mm 4 m/s 753 mmHg 94%
    08:00 +13°C° 1.2 mm 3 m/s 752 mmHg 95%
    09:00 +14°C° 1.2 mm 3 m/s 752 mmHg 95%
    10:00 +15°C° 1.3 mm 4 m/s 751 mmHg 94%
    11:00 +16°C° 1.3 mm 5 m/s 750 mmHg 93%
    12:00 +17°C° 1.3 mm 6 m/s 749 mmHg 92%
    13:00 +17°C° 0.9 mm 7 m/s 749 mmHg 89%
    14:00 +17°C° 0.9 mm 8 m/s 748 mmHg 87%
    15:00 +17°C° 0.9 mm 9 m/s 747 mmHg 85%
    16:00 +14°C° 0.9 mm 10 m/s 748 mmHg 84%
    17:00 +12°C° 0.9 mm 12 m/s 749 mmHg 84%
    18:00 +9°C° 0.9 mm 13 m/s 750 mmHg 83%
    19:00 +9°C° 0.5 mm 12 m/s 753 mmHg 81%
    20:00 +8°C° 0.5 mm 11 m/s 756 mmHg 78%
    21:00 +8°C° 0.5 mm 10 m/s 758 mmHg 76%
    22:00 +7°C° 0 mm 9 m/s 760 mmHg 76%
    23:00 +7°C° 0 mm 8 m/s 762 mmHg 75%

    24 Septembre, Lundi

    Heure Température Précipitation Vent Pression Humidité
    00:00 +8°C° 0 mm 7 m/s 764 mmHg 75%
    01:00 +7°C° 0 mm 6 m/s 765 mmHg 76%
    02:00 +7°C° 0 mm 6 m/s 767 mmHg 78%
    03:00 +5°C° 0 mm 6 m/s 768 mmHg 79%
    04:00 +6°C° 0 mm 5 m/s 769 mmHg 80%
    05:00 +6°C° 0 mm 4 m/s 770 mmHg 81%
    06:00 +5°C° 0 mm 4 m/s 771 mmHg 82%
    07:00 +7°C° 0 mm 4 m/s 772 mmHg 76%
    08:00 +8°C° 0 mm 4 m/s 773 mmHg 70%
    09:00 +10°C° 0 mm 4 m/s 773 mmHg 65%
    10:00 +11°C° 0 mm 3 m/s 774 mmHg 59%
    11:00 +12°C° 0 mm 3 m/s 774 mmHg 53%
    12:00 +13°C° 0 mm 3 m/s 775 mmHg 48%
    13:00 +14°C° 0 mm 3 m/s 775 mmHg 47%
    14:00 +14°C° 0 mm 3 m/s 775 mmHg 46%
    15:00 +14°C° 0 mm 3 m/s 775 mmHg 45%
    16:00 +13°C° 0 mm 3 m/s 775 mmHg 49%
    17:00 +13°C° 0 mm 2 m/s 775 mmHg 54%
    18:00 +12°C° 0 mm 2 m/s 776 mmHg 58%
    19:00 +11°C° 0 mm 1 m/s 776 mmHg 61%
    20:00 +10°C° 0 mm 1 m/s 777 mmHg 63%
    21:00 +10°C° 0 mm 1 m/s 777 mmHg 65%
    22:00 +9°C° 0 mm 1 m/s 777 mmHg 67%
    23:00 +9°C° 0 mm 1 m/s 777 mmHg 69%

    25 Septembre, Mardi

    Heure Température Précipitation Vent Pression Humidité
    00:00 +9°C° 0 mm 1 m/s 777 mmHg 70%
    01:00 +8°C° 0 mm 1 m/s 777 mmHg 71%
    02:00 +7°C° 0 mm 0 m/s 777 mmHg 72%
    03:00 +7°C° 0 mm 0 m/s 777 mmHg 72%
    04:00 +7°C° 0 mm 0 m/s 777 mmHg 73%
    05:00 +6°C° 0 mm 0 m/s 777 mmHg 73%
    06:00 +6°C° 0 mm 0 m/s 777 mmHg 73%
    07:00 +9°C° 0 mm 1 m/s 777 mmHg 68%
    08:00 +11°C° 0 mm 1 m/s 777 mmHg 62%
    09:00 +12°C° 0 mm 1 m/s 777 mmHg 56%
    10:00 +13°C° 0 mm 1 m/s 776 mmHg 51%
    11:00 +15°C° 0 mm 1 m/s 776 mmHg 47%
    12:00 +16°C° 0 mm 2 m/s 776 mmHg 42%
    13:00 +16°C° 0 mm 1 m/s 775 mmHg 41%
    14:00 +16°C° 0 mm 1 m/s 775 mmHg 40%
    15:00 +18°C° 0 mm 1 m/s 774 mmHg 39%
    16:00 +15°C° 0 mm 1 m/s 774 mmHg 44%
    17:00 +14°C° 0 mm 1 m/s 773 mmHg 49%
    18:00 +13°C° 0 mm 1 m/s 773 mmHg 53%
    19:00 +12°C° 0 mm 2 m/s 773 mmHg 58%
    20:00 +10°C° 0 mm 2 m/s 773 mmHg 62%
    21:00 +10°C° 0 mm 2 m/s 773 mmHg 67%
    22:00 +9°C° 0 mm 2 m/s 773 mmHg 71%
    23:00 +9°C° 0 mm 2 m/s 773 mmHg 76%

    26 Septembre, Mercredi

    Heure Température Précipitation Vent Pression Humidité
    00:00 +9°C° 0 mm 2 m/s 772 mmHg 80%
    01:00 +9°C° 0 mm 2 m/s 772 mmHg 82%
    02:00 +9°C° 0 mm 1 m/s 772 mmHg 83%
    03:00 +9°C° 0 mm 1 m/s 772 mmHg 85%
    04:00 +9°C° 0 mm 1 m/s 771 mmHg 85%
    05:00 +8°C° 0 mm 2 m/s 771 mmHg 86%
    06:00 +8°C° 0 mm 2 m/s 771 mmHg 86%
    07:00 +10°C° 0 mm 2 m/s 771 mmHg 78%
    08:00 +12°C° 0 mm 2 m/s 770 mmHg 71%
    09:00 +13°C° 0 mm 3 m/s 770 mmHg 64%
    10:00 +16°C° 0 mm 3 m/s 770 mmHg 58%
    11:00 +17°C° 0 mm 3 m/s 769 mmHg 52%
    12:00 +18°C° 0 mm 4 m/s 769 mmHg 46%
    13:00 +19°C° 0 mm 4 m/s 768 mmHg 45%
    14:00 +19°C° 0 mm 3 m/s 768 mmHg 44%
    15:00 +19°C° 0 mm 3 m/s 767 mmHg 43%
    16:00 +18°C° 0 mm 3 m/s 767 mmHg 49%
    17:00 +16°C° 0 mm 3 m/s 767 mmHg 55%
    18:00 +15°C° 0 mm 2 m/s 766 mmHg 61%
    19:00 +14°C° 0 mm 2 m/s 766 mmHg 64%
    20:00 +13°C° 0 mm 2 m/s 766 mmHg 67%
    21:00 +13°C° 0 mm 2 m/s 766 mmHg 70%
    22:00 +12°C° 0 mm 2 m/s 766 mmHg 72%
    23:00 +12°C° 0 mm 2 m/s 765 mmHg 74%
    Voir plus